This is the latest recevied weather packets stored in our database for station/object AG1T-20. If no packets are shown the sender has not sent any weather packets the latest 10 day(s).
| Time | Temp. | Humidity | Pressure | Rain* | Wind** | Luminosity | Snow |
|---|---|---|---|---|---|---|---|
| 1777998605 | 9.44° C | 93% | 1013.6 hPa | 1.52 mm | - | 85 W/m² | - |
| 1777998005 | 9.44° C | 92% | 1013.6 hPa | 1.52 mm | - | 127 W/m² | - |
| 1777997405 | 9.44° C | 93% | 1013.6 hPa | 1.27 mm | - | 105 W/m² | - |
| 1777996805 | 8.89° C | 94% | 1013.6 hPa | 1.27 mm | - | 46 W/m² | - |
| 1777996205 | 8.89° C | 93% | 1013.3 hPa | 0.76 mm | - | 29 W/m² | - |
| 1777995605 | 8.89° C | 93% | 1013.3 hPa | 0.25 mm | - | 17 W/m² | - |
| 1777995005 | 8.89° C | 92% | 1013.3 hPa | 0.25 mm | - | 21 W/m² | - |
| 1777994405 | 8.33° C | 92% | 1013.3 hPa | 0.25 mm | - | 33 W/m² | - |
| 1777993805 | 8.33° C | 91% | 1013.3 hPa | 0.51 mm | - | 17 W/m² | - |
| 1777993205 | 9.44° C | 91% | 1013.3 hPa | 0.25 mm | - | 28 W/m² | - |
| 1777992605 | 10° C | 91% | 1012.9 hPa | 0.25 mm | - | 37 W/m² | - |
| 1777992005 | 10° C | 92% | 1012.9 hPa | 0.51 mm | - | 33 W/m² | - |
| 1777991405 | 10° C | 92% | 1012.9 hPa | 0.51 mm | - | 26 W/m² | - |
| 1777990805 | 10° C | 91% | 1012.9 hPa | 0.51 mm | - | 30 W/m² | - |
| 1777989605 | 10° C | 88% | 1012.9 hPa | 0.25 mm | - | 5 W/m² | - |
| 1777989005 | 10° C | 86% | 1012.4 hPa | 0.25 mm | - | 6 W/m² | - |
| 1777988405 | 10° C | 80% | 1012.4 hPa | 0 mm | - | 9 W/m² | - |
| 1777987804 | 10.56° C | 76% | 1012.4 hPa | 0 mm | - | 7 W/m² | - |
| 1777987205 | 11.11° C | 77% | 1012.4 hPa | 0 mm | - | 4 W/m² | - |
| 1777986605 | 11.11° C | 78% | 1012.4 hPa | 0 mm | - | 3 W/m² | - |
| 1777986005 | 11.11° C | 78% | 1012.4 hPa | 0 mm | - | 2 W/m² | - |
| 1777985405 | 11.67° C | 73% | 1011.5 hPa | 0 mm | - | 2 W/m² | - |
| 1777984805 | 11.67° C | 68% | 1011.5 hPa | 0 mm | - | 1 W/m² | - |
| 1777984205 | 11.11° C | 68% | 1011.5 hPa | 0 mm | - | 0 W/m² | - |
| 1777983605 | 11.67° C | 67% | 1011.5 hPa | 0 mm | - | 0 W/m² | - |
* Rain latest hour (hover to see other rain measurements)
** Current wind speed in m/s (hover to see current wind gust speed)